This is the latest recevied weather packets stored in our database for station/object K0QED. If no packets are shown the sender has not sent any weather packets the latest 1 day(s).
| Time | Temp. | Humidity | Pressure | Rain* | Wind** | Luminosity | Snow |
|---|---|---|---|---|---|---|---|
| 1836274803 | 12.78° C | 51% | 1026.5 hPa | 0 mm | 0.45 m/s, 318° | 0 W/m² | - |
| 1836274501 | 12.78° C | 52% | 1026.4 hPa | 0 mm | 0.45 m/s, 318° | 0 W/m² | - |
| 1836274354 | 12.78° C | 53% | 1026.4 hPa | 0 mm | 0.45 m/s, 323° | 0 W/m² | - |
| 1836274198 | 13.33° C | 49% | 1026.5 hPa | 0 mm | 0 m/s | 0 W/m² | - |
| 1836273892 | 13.33° C | 51% | 1026.2 hPa | 0 mm | 0 m/s | 0 W/m² | - |
| 1778028427 | 0° C | 99% | 1013.5 hPa | 0 mm | 0 m/s | 10 W/m² | - |
| 1778028125 | 0° C | 99% | 1013 hPa | 0 mm | 0 m/s | 13 W/m² | - |
| 1778027820 | 0° C | 99% | 1013.4 hPa | 0 mm | 0 m/s | 16 W/m² | - |
| 1778027517 | 0° C | 99% | 1013.9 hPa | 0 mm | 0 m/s | 13 W/m² | - |
| 1778027213 | 0° C | 99% | 1013.9 hPa | 0 mm | 0 m/s | 11 W/m² | - |
| 1778026909 | 0° C | 99% | 1013.6 hPa | 0 mm | 0 m/s | 10 W/m² | - |
| 1778026604 | 0° C | 99% | 1013.6 hPa | 0 mm | 0 m/s | 9 W/m² | - |
| 1778026302 | 0° C | 99% | 1013.5 hPa | 0 mm | 0 m/s | 12 W/m² | - |
| 1778025999 | 0° C | 99% | 1013.6 hPa | 0 mm | 0 m/s | 11 W/m² | - |
| 1778025696 | 0° C | 99% | 1013.2 hPa | 0 mm | 0 m/s | 11 W/m² | - |
| 1778025395 | 0° C | 99% | 1013.4 hPa | 0 mm | 0 m/s | 15 W/m² | - |
| 1778025092 | 0° C | 99% | 1013 hPa | 0 mm | 0 m/s | 19 W/m² | - |
| 1778024788 | 0° C | 99% | 1013.1 hPa | 0 mm | 0 m/s | 18 W/m² | - |
| 1778024485 | 0° C | 99% | 1013.2 hPa | 0 mm | 0 m/s | 34 W/m² | - |
| 1778024183 | 0° C | 99% | 1012.7 hPa | 0 mm | 0.45 m/s, 208° | 23 W/m² | - |
| 1778023880 | 0° C | 99% | 1012.9 hPa | 0 mm | 0 m/s | 23 W/m² | - |
| 1778023577 | 0° C | 99% | 1013 hPa | 1.27 mm | 0 m/s | 20 W/m² | - |
| 1778023275 | 0° C | 99% | 1013.1 hPa | 1.27 mm | 0 m/s | 16 W/m² | - |
| 1778022972 | 0° C | 99% | 1012.6 hPa | 0 mm | 0 m/s | 23 W/m² | - |
| 1778022670 | 0° C | 99% | 1013 hPa | 1.78 mm | 0 m/s | 25 W/m² | - |
* Rain latest hour (hover to see other rain measurements)
** Current wind speed in m/s (hover to see current wind gust speed)